BCS6718 EDDF-EGLL

Flight info

Callsign BCS6718
Flight time 1h 6m
Altitude 36000
Route OBOKA5S/18 OBOKA Z29 TORNU DCT ABNED L980 LOGAN
Aircraft A306/H-SDE1FGHIRWXYZ/HB1

Departure

Time 2026-05-04 09:26
Airport Frankfurt Main Airport (EDDF)

Arrival

Time 2026-05-04 10:33
Airport London Heathrow Airport (EGLL)
Time Latitude Longitude Altitude Speed Heading
2026-05-04 09:09 50.03786 8.53363 353 ft 0 kts 340°
2026-05-04 09:17 50.03769 8.53373 354 ft 2 kts 340°
2026-05-04 09:18 50.03755 8.53380 354 ft 2 kts 349°
2026-05-04 09:18 50.03740 8.53383 354 ft 2 kts
2026-05-04 09:18 50.03725 8.53381 354 ft 2 kts 11°
2026-05-04 09:18 50.03711 8.53375 354 ft 2 kts 21°
2026-05-04 09:19 50.03698 8.53365 354 ft 2 kts 32°
2026-05-04 09:19 50.03686 8.53351 354 ft 2 kts 43°
2026-05-04 09:19 50.03675 8.53335 354 ft 2 kts 53°
2026-05-04 09:19 50.03671 8.53325 353 ft 2 kts 59°
2026-05-04 09:20 50.03665 8.53306 353 ft 0 kts 69°
2026-05-04 09:20 50.03663 8.53300 353 ft 0 kts 70°
2026-05-04 09:21 50.03664 8.53304 353 ft 1 kts 70°
2026-05-04 09:22 50.03671 8.53333 353 ft 4 kts 70°
2026-05-04 09:22 50.03688 8.53407 353 ft 10 kts 70°
2026-05-04 09:22 50.03697 8.53537 354 ft 14 kts 124°
2026-05-04 09:22 50.03627 8.53494 353 ft 10 kts 259°
2026-05-04 09:23 50.03593 8.53364 351 ft 16 kts 248°
2026-05-04 09:23 50.03542 8.53159 348 ft 23 kts 251°
2026-05-04 09:23 50.03478 8.52900 346 ft 27 kts 248°
2026-05-04 09:23 50.03440 8.52759 346 ft 6 kts 249°
2026-05-04 09:25 50.03325 8.52594 343 ft 29 kts 179°
2026-05-04 09:25 50.02866 8.52597 334 ft 101 kts 180°
2026-05-04 09:26 50.01952 8.52609 337 ft 161 kts 180°
2026-05-04 09:26 50.00775 8.52620 760 ft 178 kts 181°
2026-05-04 09:26 49.99472 8.52635 1240 ft 193 kts 181°
2026-05-04 09:26 49.98181 8.52072 1886 ft 201 kts 215°
2026-05-04 09:27 49.97049 8.50690 2400 ft 219 kts 221°
2026-05-04 09:27 49.95890 8.49128 3170 ft 226 kts 221°
2026-05-04 09:27 49.94708 8.47495 4003 ft 231 kts 223°
2026-05-04 09:27 49.93489 8.45769 4595 ft 249 kts 223°
2026-05-04 09:28 49.92195 8.43900 5350 ft 259 kts 224°
2026-05-04 09:28 49.90900 8.42003 6213 ft 266 kts 224°
2026-05-04 09:28 49.89550 8.40008 7136 ft 271 kts 224°
2026-05-04 09:28 49.88260 8.37940 8060 ft 272 kts 236°
2026-05-04 09:29 49.87668 8.35165 8842 ft 280 kts 269°
2026-05-04 09:29 49.88062 8.32239 9681 ft 284 kts 289°
2026-05-04 09:29 49.88882 8.29429 10269 ft 298 kts 295°
2026-05-04 09:29 49.89920 8.26493 10583 ft 321 kts 297°
2026-05-04 09:30 49.91097 8.23433 10891 ft 343 kts 299°
2026-05-04 09:30 49.92388 8.20209 11300 ft 360 kts 300°
2026-05-04 09:30 49.93777 8.16963 12025 ft 368 kts 306°
2026-05-04 09:30 49.95521 8.14089 12796 ft 375 kts 314°
2026-05-04 09:31 49.97489 8.11381 13636 ft 378 kts 316°
2026-05-04 09:31 49.99488 8.08756 14407 ft 382 kts 317°
2026-05-04 09:31 50.01531 8.06078 15165 ft 386 kts 317°
2026-05-04 09:31 50.03558 8.03396 15853 ft 391 kts 316°
2026-05-04 09:32 50.05644 8.00611 16558 ft 396 kts 316°
2026-05-04 09:32 50.07711 7.97839 17262 ft 399 kts 316°
2026-05-04 09:34 50.22826 7.77470 21772 ft 424 kts 315°
2026-05-04 09:34 50.25088 7.74501 22323 ft 429 kts 320°
2026-05-04 09:34 50.27678 7.72096 22848 ft 439 kts 330°
2026-05-04 09:34 50.30452 7.70164 23435 ft 443 kts 334°
2026-05-04 09:35 50.33305 7.68343 24011 ft 446 kts 334°
2026-05-04 09:35 50.36179 7.66475 24555 ft 449 kts 333°
2026-05-04 09:35 50.39046 7.64546 25093 ft 453 kts 333°
2026-05-04 09:35 50.41922 7.62574 25604 ft 457 kts 332°
2026-05-04 09:37 50.61995 7.46814 29655 ft 462 kts 321°
2026-05-04 09:37 50.64658 7.43982 30368 ft 459 kts 321°
2026-05-04 09:38 50.67297 7.41226 31013 ft 457 kts 322°
2026-05-04 09:38 50.69922 7.38523 31573 ft 456 kts 322°
2026-05-04 09:38 50.72585 7.35791 32133 ft 455 kts 322°
2026-05-04 09:38 50.75032 7.32740 32566 ft 444 kts 307°
2026-05-04 09:39 50.76674 7.28794 33006 ft 429 kts 290°
2026-05-04 09:39 50.77509 7.25783 33313 ft 426 kts 287°
2026-05-04 09:39 50.78073 7.23632 33477 ft 427 kts 287°
2026-05-04 09:39 50.79260 7.19375 33866 ft 429 kts 289°
2026-05-04 09:40 50.80556 7.15164 34278 ft 430 kts 291°
2026-05-04 09:40 50.81922 7.10957 34658 ft 431 kts 292°
2026-05-04 09:40 50.83285 7.06799 35020 ft 430 kts 292°
2026-05-04 09:40 50.84654 7.02608 35385 ft 429 kts 291°
2026-05-04 09:41 50.86009 6.98432 35765 ft 427 kts 292°
2026-05-04 09:42 50.95352 6.69300 35980 ft 425 kts 291°
2026-05-04 09:43 50.97997 6.61007 35972 ft 422 kts 291°
2026-05-04 09:43 51.00636 6.52702 35980 ft 423 kts 291°
2026-05-04 09:44 51.03269 6.44394 35980 ft 423 kts 291°
2026-05-04 09:46 51.13718 6.11037 35961 ft 420 kts 287°
2026-05-04 09:46 51.15377 6.02263 35967 ft 412 kts 278°
2026-05-04 09:47 51.16723 5.93447 35971 ft 413 kts 279°
2026-05-04 09:49 51.24812 5.58901 35946 ft 420 kts 287°
2026-05-04 09:51 51.32634 5.28938 35953 ft 418 kts 286°
2026-05-04 09:51 51.34842 5.20420 35955 ft 419 kts 287°
2026-05-04 09:52 51.37051 5.11853 35957 ft 418 kts 287°
2026-05-04 09:52 51.39256 5.03299 35956 ft 418 kts 287°
2026-05-04 09:53 51.41466 4.94695 35960 ft 418 kts 287°
2026-05-04 09:53 51.43650 4.86113 35957 ft 419 kts 287°
2026-05-04 09:54 51.45853 4.77462 35951 ft 418 kts 287°
2026-05-04 09:54 51.48024 4.68880 35955 ft 419 kts 287°
2026-05-04 09:55 51.50213 4.60199 35961 ft 419 kts 287°
2026-05-04 09:55 51.52374 4.51605 35965 ft 419 kts 287°
2026-05-04 09:56 51.54548 4.42918 35970 ft 421 kts 287°
2026-05-04 09:56 51.56717 4.34230 35962 ft 420 kts 286°
2026-05-04 09:57 51.58879 4.25536 35972 ft 422 kts 286°
2026-05-04 09:57 51.61044 4.16782 35971 ft 422 kts 286°
2026-05-04 09:58 51.63198 4.08034 35965 ft 421 kts 286°
2026-05-04 09:58 51.65338 3.99319 35970 ft 422 kts 286°
2026-05-04 10:00 51.73459 3.65917 35974 ft 424 kts 287°
2026-05-04 10:04 51.84613 3.07872 36007 ft 421 kts 256°
2026-05-04 10:04 51.83709 2.98592 35996 ft 422 kts 259°
2026-05-04 10:05 51.83094 2.89168 35976 ft 417 kts 261°
2026-05-04 10:05 51.82502 2.79988 35947 ft 409 kts 261°
2026-05-04 10:05 51.82204 2.75468 35336 ft 408 kts 260°
2026-05-04 10:06 51.81908 2.70948 34376 ft 406 kts 260°
2026-05-04 10:06 51.81601 2.66485 33509 ft 398 kts 260°
2026-05-04 10:06 51.81283 2.62121 32671 ft 390 kts 260°
2026-05-04 10:08 51.79544 2.37338 27209 ft 359 kts 261°
2026-05-04 10:08 51.79261 2.33402 26647 ft 355 kts 261°
2026-05-04 10:08 51.78983 2.29457 26182 ft 350 kts 261°
2026-05-04 10:08 51.78711 2.25598 25616 ft 349 kts 261°
2026-05-04 10:09 51.78446 2.21720 25082 ft 346 kts 261°
2026-05-04 10:09 51.78210 2.17922 24560 ft 344 kts 262°
2026-05-04 10:09 51.77980 2.14069 24025 ft 342 kts 262°
2026-05-04 10:09 51.77756 2.10304 23503 ft 340 kts 262°
2026-05-04 10:10 51.77531 2.06519 22920 ft 339 kts 263°
2026-05-04 10:10 51.77309 2.02742 22379 ft 338 kts 263°
2026-05-04 10:10 51.77093 1.99008 21809 ft 337 kts 263°
2026-05-04 10:10 51.76873 1.95262 21256 ft 336 kts 263°
2026-05-04 10:11 51.76650 1.91577 20738 ft 335 kts 263°
2026-05-04 10:11 51.76424 1.87854 20190 ft 334 kts 263°
2026-05-04 10:11 51.76199 1.84146 19649 ft 334 kts 263°
2026-05-04 10:11 51.75974 1.80439 19098 ft 334 kts 263°
2026-05-04 10:12 51.75749 1.76738 18596 ft 332 kts 263°
2026-05-04 10:12 51.75524 1.73054 18105 ft 330 kts 263°
2026-05-04 10:12 51.75297 1.69363 17621 ft 329 kts 263°
2026-05-04 10:12 51.75074 1.65756 17173 ft 326 kts 264°
2026-05-04 10:13 51.74845 1.62122 16709 ft 324 kts 263°
2026-05-04 10:13 51.74609 1.58567 16234 ft 322 kts 263°
2026-05-04 10:13 51.74374 1.54997 15995 ft 312 kts 263°
2026-05-04 10:13 51.74156 1.51617 15986 ft 304 kts 263°
2026-05-04 10:14 51.73936 1.48189 15993 ft 314 kts 264°
2026-05-04 10:14 51.73707 1.44631 15991 ft 319 kts 264°
2026-05-04 10:16 51.72092 1.19811 15877 ft 303 kts 263°
2026-05-04 10:16 51.71867 1.16417 15199 ft 311 kts 263°
2026-05-04 10:16 51.71632 1.12925 14605 ft 313 kts 263°
2026-05-04 10:16 51.71400 1.09475 14116 ft 312 kts 263°
2026-05-04 10:17 51.71165 1.06004 13631 ft 312 kts 263°
2026-05-04 10:17 51.70931 1.02546 13158 ft 310 kts 263°
2026-05-04 10:19 51.69307 0.79402 10491 ft 284 kts 263°
2026-05-04 10:19 51.69086 0.76214 10054 ft 283 kts 263°
2026-05-04 10:19 51.68867 0.73088 9647 ft 282 kts 263°
2026-05-04 10:19 51.68644 0.69975 9245 ft 280 kts 263°
2026-05-04 10:20 51.68419 0.66913 9010 ft 273 kts 263°
2026-05-04 10:20 51.68202 0.63914 8995 ft 270 kts 263°
2026-05-04 10:20 51.67985 0.60894 8996 ft 276 kts 263°
2026-05-04 10:20 51.67764 0.57814 9001 ft 278 kts 263°
2026-05-04 10:21 51.67543 0.54728 8997 ft 278 kts 263°
2026-05-04 10:21 51.67320 0.51632 9002 ft 279 kts 263°
2026-05-04 10:21 51.67094 0.48547 8998 ft 279 kts 263°
2026-05-04 10:21 51.66866 0.45449 9011 ft 279 kts 263°
2026-05-04 10:22 51.66116 0.39424 8005 ft 286 kts 242°
2026-05-04 10:22 51.64806 0.36992 7137 ft 298 kts 217°
2026-05-04 10:22 51.63103 0.35191 6951 ft 285 kts 213°
2026-05-04 10:23 51.61589 0.33276 6883 ft 268 kts 231°
2026-05-04 10:23 51.60632 0.30843 6807 ft 255 kts 240°
2026-05-04 10:25 51.52773 0.16297 4403 ft 240 kts 231°
2026-05-04 10:25 51.51748 0.14233 4095 ft 239 kts 231°
2026-05-04 10:25 51.50724 0.12172 3944 ft 230 kts 231°
2026-05-04 10:25 51.49771 0.10167 3929 ft 226 kts 239°
2026-05-04 10:26 51.48970 0.07966 3938 ft 228 kts 240°
2026-05-04 10:26 51.48208 0.05772 3921 ft 228 kts 242°
2026-05-04 10:26 51.47451 0.03551 3940 ft 226 kts 244°
2026-05-04 10:26 51.47021 0.01112 3956 ft 227 kts 262°
2026-05-04 10:27 51.46810 -0.01389 3952 ft 228 kts 265°
2026-05-04 10:27 51.46682 -0.03904 3935 ft 226 kts 267°
2026-05-04 10:27 51.46611 -0.06412 3935 ft 222 kts 269°
2026-05-04 10:27 51.46573 -0.08858 3927 ft 216 kts 270°
2026-05-04 10:28 51.46553 -0.11232 3945 ft 212 kts 270°
2026-05-04 10:28 51.46542 -0.13499 3818 ft 201 kts 271°
2026-05-04 10:28 51.46537 -0.15685 3545 ft 194 kts 271°
2026-05-04 10:28 51.46535 -0.17832 3274 ft 188 kts 272°
2026-05-04 10:29 51.46530 -0.19896 3011 ft 182 kts 272°
2026-05-04 10:29 51.46531 -0.21892 2757 ft 176 kts 272°
2026-05-04 10:29 51.46530 -0.23821 2523 ft 172 kts 272°
2026-05-04 10:29 51.46527 -0.25688 2289 ft 165 kts 272°
2026-05-04 10:30 51.46526 -0.27498 2083 ft 162 kts 272°
2026-05-04 10:30 51.46524 -0.29281 1862 ft 160 kts 273°
2026-05-04 10:30 51.46520 -0.31024 1659 ft 151 kts 273°
2026-05-04 10:30 51.46518 -0.32652 1397 ft 145 kts 273°
2026-05-04 10:31 51.46521 -0.34274 1135 ft 144 kts 273°
2026-05-04 10:31 51.46518 -0.35830 993 ft 140 kts 272°
2026-05-04 10:32 51.46491 -0.44988 92 ft 104 kts 271°
2026-05-04 10:33 51.46488 -0.45961 88 ft 70 kts 268°
2026-05-04 10:33 51.46447 -0.46537 85 ft 23 kts 248°
2026-05-04 10:33 51.46385 -0.46742 84 ft 20 kts 226°
2026-05-04 10:33 51.46322 -0.46725 85 ft 8 kts 121°
2026-05-04 10:34 51.46313 -0.46659 86 ft 6 kts 86°
2026-05-04 10:34 51.46316 -0.46569 87 ft 10 kts 86°
2026-05-04 10:34 51.46321 -0.46429 89 ft 15 kts 90°
2026-05-04 10:34 51.46322 -0.46221 89 ft 22 kts 90°
2026-05-04 10:35 51.46318 -0.46087 89 ft 1 kts 114°
2026-05-04 10:35 51.46303 -0.46068 89 ft 4 kts 146°
2026-05-04 10:35 51.46278 -0.46066 90 ft 5 kts 187°
2026-05-04 10:35 51.46240 -0.46068 90 ft 6 kts 180°
2026-05-04 10:36 51.46214 -0.46067 91 ft 2 kts 180°
2026-05-04 10:36 51.46211 -0.46067 91 ft 0 kts 180°